| time (UTC) | temp F | wind direction | speed MPH | gust MPH | rain 1hr in | rain 24hr in | rain mn in | humidity % | barometer mb |
| 20260906234601 | 58 | 164 | 0.0 | 0.0 | 0.00 | 0.00 | 0.00 | 82 | 1027.8 |
| 20260906234059 | 59 | 164 | 0.0 | 0.0 | 0.00 | 0.00 | 0.00 | 82 | 1028.0 |
| 20260906233557 | 59 | 164 | 0.0 | 2.0 | 0.00 | 0.00 | 0.00 | 82 | 1027.9 |
| 20260906233059 | 59 | 164 | 0.0 | 3.0 | 0.00 | 0.00 | 0.00 | 82 | 1028.0 |
| 20260906232558 | 59 | 164 | 2.0 | 3.0 | 0.00 | 0.00 | 0.00 | 82 | 1028.0 |
| 20260906232057 | 58 | 163 | 0.0 | 2.0 | 0.00 | 0.00 | 0.00 | 82 | 1028.0 |
| 20260906231557 | 59 | 163 | 0.0 | 2.0 | 0.00 | 0.00 | 0.00 | 82 | 1028.0 |
| 20260906231056 | 59 | 163 | 0.0 | 2.0 | 0.00 | 0.00 | 0.00 | 82 | 1027.9 |
| 20260906230556 | 59 | 163 | 0.0 | 2.0 | 0.00 | 0.00 | 0.00 | 82 | 1028.0 |
| 20260906225554 | 58 | 163 | 0.0 | 0.0 | 0.00 | 0.00 | 0.00 | 82 | 1028.0 |
| 20260906225054 | 58 | 163 | 0.0 | 0.0 | 0.00 | 0.00 | 0.00 | 83 | 1028.2 |
| 20260906224552 | 59 | 163 | 0.0 | 0.0 | 0.00 | 0.00 | 0.00 | 82 | 1028.1 |
| 20260906224051 | 59 | 163 | 0.0 | 0.0 | 0.00 | 0.00 | 0.00 | 81 | 1028.1 |
| 20260906223550 | 59 | 163 | 0.0 | 0.0 | 0.00 | 0.00 | 0.00 | 81 | 1028.1 |
| 20260906223049 | 60 | 163 | 0.0 | 0.0 | 0.00 | 0.00 | 0.00 | 80 | 1028.1 |
| 20260906222548 | 60 | 163 | 0.0 | 0.0 | 0.00 | 0.00 | 0.00 | 80 | 1028.1 |
| 20260906222048 | 60 | 163 | 0.0 | 0.0 | 0.00 | 0.00 | 0.00 | 80 | 1028.1 |
| 20260906221548 | 60 | 163 | 0.0 | 1.0 | 0.00 | 0.00 | 0.00 | 79 | 1028.1 |
| 20260906221048 | 60 | 163 | 0.0 | 2.0 | 0.00 | 0.00 | 0.00 | 80 | 1028.1 |
| 20260906220547 | 60 | 163 | 0.0 | 3.0 | 0.00 | 0.00 | 0.00 | 80 | 1028.2 |
| 20260906220046 | 60 | 195 | 0.0 | 0.0 | 0.00 | 0.00 | 0.00 | 80 | 1028.2 |
| 20260906215545 | 59 | 195 | 0.0 | 0.0 | 0.00 | 0.00 | 0.00 | 81 | 1028.1 |
| 20260906215045 | 59 | 195 | 0.0 | 0.0 | 0.00 | 0.00 | 0.00 | 82 | 1028.1 |
| 20260906214544 | 59 | 195 | 0.0 | 0.0 | 0.00 | 0.00 | 0.00 | 82 | 1028.2 |
| 20260906214044 | 59 | 195 | 0.0 | 0.0 | 0.00 | 0.00 | 0.00 | 82 | 1028.2 |
| 20260906213545 | 60 | 195 | 0.0 | 0.0 | 0.00 | 0.00 | 0.00 | 81 | 1028.2 |
| 20260906213050 | 60 | 195 | 0.0 | 0.0 | 0.00 | 0.00 | 0.00 | 80 | 1028.2 |
| 20260906212544 | 60 | 195 | 0.0 | 0.0 | 0.00 | 0.00 | 0.00 | 79 | 1028.1 |
| 20260906212044 | 61 | 195 | 0.0 | 0.0 | 0.00 | 0.00 | 0.00 | 79 | 1028.1 |
| 20260906211544 | 61 | 195 | 0.0 | 0.0 | 0.00 | 0.00 | 0.00 | 78 | 1028.1 |
| 20260906211044 | 61 | 195 | 0.0 | 0.0 | 0.00 | 0.00 | 0.00 | 77 | 1028.1 |
| 20260906210544 | 61 | 195 | 0.0 | 0.0 | 0.00 | 0.00 | 0.00 | 78 | 1028.2 |
| 20260906210046 | 61 | 195 | 0.0 | 0.0 | 0.00 | 0.00 | 0.00 | 78 | 1028.1 |
| 20260906205544 | 61 | 195 | 0.0 | 0.0 | 0.00 | 0.00 | 0.00 | 79 | 1028.0 |
| 20260906205043 | 60 | 195 | 0.0 | 0.0 | 0.00 | 0.00 | 0.00 | 79 | 1028.1 |
| 20260906204556 | 61 | 195 | 0.0 | 0.0 | 0.00 | 0.00 | 0.00 | 81 | 1028.1 |
| 20260906204043 | 61 | 195 | 0.0 | 0.0 | 0.00 | 0.00 | 0.00 | 80 | 1028.1 |
| 20260906203546 | 61 | 195 | 0.0 | 0.0 | 0.00 | 0.00 | 0.00 | 80 | 1028.0 |
| 20260906203056 | 61 | 195 | 0.0 | 0.0 | 0.00 | 0.00 | 0.00 | 79 | 1028.0 |
| 20260906202542 | 62 | 195 | 0.0 | 0.0 | 0.00 | 0.00 | 0.00 | 78 | 1028.1 |
| 20260906202042 | 62 | 195 | 0.0 | 0.0 | 0.00 | 0.00 | 0.00 | 78 | 1028.1 |
| 20260906201543 | 62 | 195 | 0.0 | 0.0 | 0.00 | 0.00 | 0.00 | 77 | 1028.1 |
| 20260906201042 | 63 | 195 | 0.0 | 0.0 | 0.00 | 0.00 | 0.00 | 76 | 1028.1 |
| 20260906200543 | 63 | 195 | 0.0 | 0.0 | 0.00 | 0.00 | 0.00 | 76 | 1028.1 |
| 20260906200043 | 63 | 195 | 0.0 | 0.0 | 0.00 | 0.00 | 0.00 | 75 | 1028.1 |
| 20260906195541 | 63 | 195 | 0.0 | 0.0 | 0.00 | 0.00 | 0.00 | 74 | 1028.1 |
| 20260906195045 | 63 | 195 | 0.0 | 0.0 | 0.00 | 0.00 | 0.00 | 75 | 1028.2 |
| 20260906194542 | 63 | 195 | 0.0 | 0.0 | 0.00 | 0.00 | 0.00 | 75 | 1028.2 |
| 20260906194041 | 64 | 195 | 0.0 | 0.0 | 0.00 | 0.00 | 0.00 | 75 | 1028.2 |
| 20260906193542 | 64 | 195 | 0.0 | 0.0 | 0.00 | 0.00 | 0.00 | 74 | 1028.2 |
| 20260906193043 | 64 | 195 | 0.0 | 0.0 | 0.00 | 0.00 | 0.00 | 74 | 1028.1 |
| 20260906192541 | 64 | 195 | 0.0 | 0.0 | 0.00 | 0.00 | 0.00 | 74 | 1028.1 |
| 20260906192041 | 64 | 195 | 0.0 | 0.0 | 0.00 | 0.00 | 0.00 | 74 | 1028.1 |
| 20260906191541 | 65 | 195 | 0.0 | 0.0 | 0.00 | 0.00 | 0.00 | 73 | 1028.1 |
| 20260906191040 | 65 | 195 | 0.0 | 0.0 | 0.00 | 0.00 | 0.00 | 73 | 1028.1 |
| 20260906190541 | 65 | 195 | 0.0 | 0.0 | 0.00 | 0.00 | 0.00 | 71 | 1028.1 |
| 20260906190042 | 65 | 195 | 0.0 | 0.0 | 0.00 | 0.00 | 0.00 | 70 | 1028.0 |
| 20260906185540 | 65 | 195 | 0.0 | 0.0 | 0.00 | 0.00 | 0.00 | 70 | 1028.0 |
| 20260906185040 | 65 | 195 | 0.0 | 0.0 | 0.00 | 0.00 | 0.00 | 69 | 1028.0 |
| 20260906184540 | 66 | 195 | 0.0 | 0.0 | 0.00 | 0.00 | 0.00 | 69 | 1027.9 |
| 20260906184139 | 66 | 195 | 0.0 | 0.0 | 0.00 | 0.00 | 0.00 | 70 | 1027.9 |
| 20260906183539 | 66 | 195 | 0.0 | 0.0 | 0.00 | 0.00 | 0.00 | 69 | 1028.0 |
| 20260906183037 | 67 | 195 | 0.0 | 0.0 | 0.00 | 0.00 | 0.00 | 69 | 1027.9 |
| 20260906182536 | 67 | 195 | 0.0 | 2.0 | 0.00 | 0.00 | 0.00 | 67 | 1027.9 |
| 20260906182036 | 67 | 195 | 0.0 | 2.0 | 0.00 | 0.00 | 0.00 | 64 | 1027.8 |
| 20260906181541 | 68 | 162 | 0.0 | 3.0 | 0.00 | 0.00 | 0.00 | 63 | 1027.8 |
| 20260906181036 | 68 | 162 | 0.0 | 2.0 | 0.00 | 0.00 | 0.00 | 63 | 1027.7 |
| 20260906180536 | 68 | 273 | 0.0 | 3.0 | 0.00 | 0.00 | 0.00 | 63 | 1027.7 |
| 20260906180055 | 68 | 266 | 0.0 | 1.0 | 0.00 | 0.00 | 0.00 | 62 | 1027.6 |
| 20260906175536 | 68 | 266 | 0.0 | 9.0 | 0.00 | 0.00 | 0.00 | 62 | 1027.5 |
| 20260906175037 | 69 | 287 | 0.0 | 9.0 | 0.00 | 0.00 | 0.00 | 62 | 1027.4 |
| 20260906174537 | 69 | 258 | 2.0 | 8.0 | 0.00 | 0.00 | 0.00 | 62 | 1027.4 |
| 20260906174035 | 69 | 288 | 4.0 | 8.0 | 0.00 | 0.00 | 0.00 | 61 | 1027.3 |
| 20260906173535 | 69 | 318 | 1.0 | 7.0 | 0.00 | 0.00 | 0.00 | 62 | 1027.3 |
| 20260906173035 | 69 | 268 | 0.0 | 5.0 | 0.00 | 0.00 | 0.00 | 61 | 1027.2 |
| 20260906172535 | 69 | 143 | 0.0 | 5.0 | 0.00 | 0.00 | 0.00 | 61 | 1027.3 |
| 20260906172034 | 70 | 260 | 1.0 | 5.0 | 0.00 | 0.00 | 0.00 | 61 | 1027.2 |
| 20260906171540 | 70 | 264 | 1.0 | 4.0 | 0.00 | 0.00 | 0.00 | 61 | 1027.2 |
| 20260906171033 | 70 | 213 | 1.0 | 4.0 | 0.00 | 0.00 | 0.00 | 61 | 1027.2 |
| 20260906170535 | 70 | 267 | 0.0 | 5.0 | 0.00 | 0.00 | 0.00 | 61 | 1027.2 |
| 20260906170040 | 70 | 309 | 0.0 | 5.0 | 0.00 | 0.00 | 0.00 | 61 | 1027.2 |
| 20260906165534 | 70 | 287 | 2.0 | 6.0 | 0.00 | 0.00 | 0.00 | 60 | 1027.2 |
| 20260906165035 | 71 | 274 | 3.0 | 9.0 | 0.00 | 0.00 | 0.00 | 60 | 1027.2 |
| 20260906164533 | 71 | 270 | 2.0 | 9.0 | 0.00 | 0.00 | 0.00 | 60 | 1027.0 |
| 20260906164033 | 71 | 254 | 3.0 | 9.0 | 0.00 | 0.00 | 0.00 | 61 | 1027.1 |
| 20260906163533 | 71 | 291 | 4.0 | 9.0 | 0.00 | 0.00 | 0.00 | 60 | 1027.0 |
| 20260906163033 | 71 | 280 | 2.0 | 8.0 | 0.00 | 0.00 | 0.00 | 60 | 1027.0 |
| 20260906162535 | 71 | 225 | 5.0 | 11.0 | 0.00 | 0.00 | 0.00 | 59 | 1027.0 |
| 20260906162032 | 71 | 274 | 6.0 | 11.0 | 0.00 | 0.00 | 0.00 | 59 | 1027.0 |
| 20260906161533 | 71 | 304 | 3.0 | 8.0 | 0.00 | 0.00 | 0.00 | 58 | 1027.1 |
| 20260906161031 | 72 | 274 | 0.0 | 0.0 | 0.00 | 0.00 | 0.00 | 58 | 1027.1 |
| 20260906160532 | 71 | 265 | 0.0 | 0.0 | 0.00 | 0.00 | 0.00 | 59 | 1027.1 |
| 20260906160035 | 71 | 314 | 0.0 | 0.0 | 0.00 | 0.00 | 0.00 | 59 | 1027.1 |
| 20260906155531 | 71 | 309 | 0.0 | 11.0 | 0.00 | 0.00 | 0.00 | 59 | 1027.1 |
| 20260906155034 | 71 | 258 | 6.0 | 12.0 | 0.00 | 0.00 | 0.00 | 59 | 1027.1 |
| 20260906154530 | 72 | 279 | 6.0 | 13.0 | 0.00 | 0.00 | 0.00 | 59 | 1027.1 |
| 20260906154030 | 72 | 249 | 8.0 | 13.0 | 0.00 | 0.00 | 0.00 | 59 | 1027.1 |
| 20260906153529 | 72 | 304 | 7.0 | 13.0 | 0.00 | 0.00 | 0.00 | 58 | 1027.1 |
| 20260906153030 | 72 | 270 | 5.0 | 13.0 | 0.00 | 0.00 | 0.00 | 58 | 1027.2 |
| 20260906152532 | 72 | 287 | 8.0 | 13.0 | 0.00 | 0.00 | 0.00 | 58 | 1027.1 |
| 20260906152029 | 72 | 289 | 6.0 | 13.0 | 0.00 | 0.00 | 0.00 | 58 | 1027.1 |
| 20260906151529 | 72 | 266 | 8.0 | 13.0 | 0.00 | 0.00 | 0.00 | 58 | 1027.2 |
| 20260906151028 | 72 | 247 | 7.0 | 13.0 | 0.00 | 0.00 | 0.00 | 58 | 1027.3 |
| 20260906150528 | 73 | 289 | 7.0 | 11.0 | 0.00 | 0.00 | 0.00 | 58 | 1027.2 |
| 20260906150029 | 73 | 269 | 6.0 | 11.0 | 0.00 | 0.00 | 0.00 | 58 | 1027.3 |
| 20260906145526 | 73 | 290 | 7.0 | 11.0 | 0.00 | 0.00 | 0.00 | 57 | 1027.3 |
| 20260906145027 | 73 | 293 | 6.0 | 11.0 | 0.00 | 0.00 | 0.00 | 56 | 1027.3 |
| 20260906144526 | 74 | 282 | 5.0 | 11.0 | 0.00 | 0.00 | 0.00 | 56 | 1027.3 |
| 20260906144026 | 74 | 284 | 0.0 | 9.0 | 0.00 | 0.00 | 0.00 | 56 | 1027.3 |
| 20260906143526 | 74 | 274 | 2.0 | 10.0 | 0.00 | 0.00 | 0.00 | 54 | 1027.4 |
| 20260906143025 | 74 | 214 | 6.0 | 10.0 | 0.00 | 0.00 | 0.00 | 53 | 1027.4 |
| 20260906142525 | 75 | 304 | 5.0 | 11.0 | 0.00 | 0.00 | 0.00 | 53 | 1027.4 |
| 20260906142024 | 75 | 278 | 6.0 | 11.0 | 0.00 | 0.00 | 0.00 | 53 | 1027.4 |
| 20260906141523 | 75 | 304 | 4.0 | 11.0 | 0.00 | 0.00 | 0.00 | 53 | 1027.5 |
| 20260906141023 | 74 | 290 | 6.0 | 11.0 | 0.00 | 0.00 | 0.00 | 54 | 1027.5 |
| 20260906140522 | 74 | 283 | 5.0 | 11.0 | 0.00 | 0.00 | 0.00 | 55 | 1027.6 |
| 20260906140023 | 74 | 304 | 5.0 | 11.0 | 0.00 | 0.00 | 0.00 | 54 | 1027.6 |
| 20260906135523 | 74 | 292 | 5.0 | 10.0 | 0.00 | 0.00 | 0.00 | 54 | 1027.6 |
| 20260906135021 | 74 | 274 | 5.0 | 12.0 | 0.00 | 0.00 | 0.00 | 55 | 1027.6 |
| 20260906134559 | 74 | 309 | 5.0 | 12.0 | 0.00 | 0.00 | 0.00 | 53 | 1027.6 |
| 20260906134059 | 74 | 274 | 7.0 | 12.0 | 0.00 | 0.00 | 0.00 | 54 | 1027.7 |
| 20260906133559 | 74 | 272 | 7.0 | 11.0 | 0.00 | 0.00 | 0.00 | 56 | 1027.7 |
| 20260906133122 | 74 | 295 | 5.0 | 10.0 | 0.00 | 0.00 | 0.00 | 56 | 1027.7 |
| 20260906132556 | 74 | 290 | 4.0 | 11.0 | 0.00 | 0.00 | 0.00 | 56 | 1027.7 |
| 20260906132055 | 74 | 291 | 5.0 | 10.0 | 0.00 | 0.00 | 0.00 | 55 | 1027.8 |
| 20260906131555 | 74 | 278 | 5.0 | 10.0 | 0.00 | 0.00 | 0.00 | 56 | 1027.9 |
| 20260906131056 | 74 | 318 | 4.0 | 8.0 | 0.00 | 0.00 | 0.00 | 54 | 1028.0 |
| 20260906130554 | 74 | 309 | 3.0 | 8.0 | 0.00 | 0.00 | 0.00 | 55 | 1028.0 |
| 20260906130107 | 75 | 283 | 2.0 | 8.0 | 0.00 | 0.00 | 0.00 | 56 | 1028.1 |
| 20260906125553 | 75 | 314 | 3.0 | 8.0 | 0.00 | 0.00 | 0.00 | 55 | 1028.1 |
| 20260906125053 | 74 | 295 | 4.0 | 9.0 | 0.00 | 0.00 | 0.00 | 54 | 1028.2 |
| 20260906124551 | 74 | 304 | 4.0 | 9.0 | 0.00 | 0.00 | 0.00 | 54 | 1028.2 |
| 20260906124051 | 74 | 304 | 4.0 | 8.0 | 0.00 | 0.00 | 0.00 | 54 | 1028.3 |
| 20260906123550 | 74 | 318 | 4.0 | 8.0 | 0.00 | 0.00 | 0.00 | 55 | 1028.3 |
| 20260906123050 | 74 | 309 | 4.0 | 7.0 | 0.00 | 0.00 | 0.00 | 56 | 1028.4 |
| 20260906122548 | 74 | 314 | 4.0 | 9.0 | 0.00 | 0.00 | 0.00 | 54 | 1028.4 |
| 20260906122047 | 74 | 290 | 4.0 | 9.0 | 0.00 | 0.00 | 0.00 | 56 | 1028.5 |
| 20260906121546 | 74 | 318 | 4.0 | 9.0 | 0.00 | 0.00 | 0.00 | 56 | 1028.6 |
| 20260906121044 | 74 | 314 | 4.0 | 9.0 | 0.00 | 0.00 | 0.00 | 56 | 1028.6 |
| 20260906120543 | 74 | 319 | 5.0 | 10.0 | 0.00 | 0.00 | 0.00 | 57 | 1028.6 |
| 20260906120043 | 73 | 295 | 6.0 | 10.0 | 0.00 | 0.00 | 0.00 | 55 | 1028.6 |
| 20260906115542 | 74 | 309 | 5.0 | 10.0 | 0.00 | 0.00 | 0.00 | 56 | 1028.6 |
| 20260906115040 | 73 | 324 | 3.0 | 8.0 | 0.00 | 0.00 | 0.00 | 59 | 1028.7 |
| 20260906114546 | 73 | 296 | 4.0 | 8.0 | 0.00 | 0.00 | 0.00 | 56 | 1028.7 |
| 20260906114039 | 73 | 309 | 4.0 | 8.0 | 0.00 | 0.00 | 0.00 | 60 | 1028.8 |
| 20260906113537 | 73 | 304 | 4.0 | 9.0 | 0.00 | 0.00 | 0.00 | 58 | 1028.8 |
| 20260906113036 | 73 | 309 | 6.0 | 9.0 | 0.00 | 0.00 | 0.00 | 61 | 1028.8 |
| 20260906112534 | 73 | 293 | 1.0 | 8.0 | 0.00 | 0.00 | 0.00 | 58 | 1028.9 |
| 20260906112034 | 72 | 251 | 4.0 | 10.0 | 0.00 | 0.00 | 0.00 | 62 | 1029.0 |
| 20260906111536 | 72 | 318 | 6.0 | 10.0 | 0.00 | 0.00 | 0.00 | 59 | 1029.0 |
| 20260906111032 | 72 | 304 | 4.0 | 11.0 | 0.00 | 0.00 | 0.00 | 61 | 1029.1 |
| 20260906110532 | 72 | 314 | 5.0 | 11.0 | 0.00 | 0.00 | 0.00 | 60 | 1029.0 |
| 20260906110032 | 72 | 309 | 6.0 | 11.0 | 0.00 | 0.00 | 0.00 | 60 | 1029.1 |
| 20260906105530 | 72 | 291 | 0.0 | 0.0 | 0.00 | 0.00 | 0.00 | 61 | 1029.2 |
| 20260906105030 | 71 | 309 | 0.0 | 0.0 | 0.00 | 0.00 | 0.00 | 61 | 1029.2 |
| 20260906104529 | 71 | 304 | 0.0 | 0.0 | 0.00 | 0.00 | 0.00 | 64 | 1029.2 |
| 20260906104027 | 71 | 314 | 0.0 | 0.0 | 0.00 | 0.00 | 0.00 | 62 | 1029.4 |
| 20260906103526 | 71 | 304 | 0.0 | 0.0 | 0.00 | 0.00 | 0.00 | 64 | 1029.4 |
| 20260906103026 | 70 | 304 | 0.0 | 0.0 | 0.00 | 0.00 | 0.00 | 62 | 1029.4 |
| 20260906102528 | 70 | 325 | 0.0 | 0.0 | 0.00 | 0.00 | 0.00 | 64 | 1029.5 |
| 20260906102124 | 70 | 266 | 0.0 | 0.0 | 0.00 | 0.00 | 0.00 | 63 | 1029.6 |
| 20260906101523 | 70 | 324 | 0.0 | 0.0 | 0.00 | 0.00 | 0.00 | 65 | 1029.6 |
| 20260906101021 | 69 | 314 | 0.0 | 0.0 | 0.00 | 0.00 | 0.00 | 64 | 1029.8 |
| 20260906100521 | 69 | 325 | 0.0 | 0.0 | 0.00 | 0.00 | 0.00 | 67 | 1029.8 |
| 20260906100024 | 69 | 325 | 0.0 | 0.0 | 0.00 | 0.00 | 0.00 | 67 | 1029.9 |
| 20260906095520 | 69 | 314 | 0.0 | 0.0 | 0.00 | 0.00 | 0.00 | 68 | 1029.9 |
| 20260906095018 | 69 | 318 | 0.0 | 0.0 | 0.00 | 0.00 | 0.00 | 68 | 1029.9 |
| 20260906094516 | 68 | 304 | 0.0 | 0.0 | 0.00 | 0.00 | 0.00 | 70 | 1029.9 |
| 20260906094014 | 68 | 314 | 0.0 | 0.0 | 0.00 | 0.00 | 0.00 | 71 | 1030.0 |
| 20260906093513 | 68 | 304 | 0.0 | 0.0 | 0.00 | 0.00 | 0.00 | 70 | 1030.1 |
| 20260906093012 | 68 | 309 | 0.0 | 0.0 | 0.00 | 0.00 | 0.00 | 70 | 1030.1 |
| 20260906092512 | 68 | 295 | 0.0 | 0.0 | 0.00 | 0.00 | 0.00 | 70 | 1030.2 |
| 20260906092010 | 68 | 294 | 0.0 | 0.0 | 0.00 | 0.00 | 0.00 | 72 | 1030.3 |
| 20260906091514 | 68 | 304 | 0.0 | 8.0 | 0.00 | 0.00 | 0.00 | 71 | 1030.3 |
| 20260906091007 | 67 | 293 | 4.0 | 8.0 | 0.00 | 0.00 | 0.00 | 72 | 1030.3 |
| 20260906090505 | 67 | 309 | 0.0 | 0.0 | 0.00 | 0.00 | 0.00 | 69 | 1030.3 |
| 20260906090004 | 67 | 304 | 0.0 | 5.0 | 0.00 | 0.00 | 0.00 | 68 | 1030.2 |
| 20260906085503 | 67 | 296 | 1.0 | 5.0 | 0.00 | 0.00 | 0.00 | 68 | 1030.2 |
| 20260906085002 | 67 | 314 | 0.0 | 0.0 | 0.00 | 0.00 | 0.00 | 69 | 1030.4 |
| 20260906084502 | 67 | 314 | 0.0 | 0.0 | 0.00 | 0.00 | 0.00 | 69 | 1030.4 |
| 20260906084101 | 67 | 314 | 0.0 | 0.0 | 0.00 | 0.00 | 0.00 | 70 | 1030.4 |
| 20260906083601 | 67 | 314 | 0.0 | 0.0 | 0.00 | 0.00 | 0.00 | 71 | 1030.4 |
| 20260906083057 | 66 | 314 | 0.0 | 0.0 | 0.00 | 0.00 | 0.00 | 77 | 1030.5 |
| 20260906082555 | 66 | 314 | 0.0 | 0.0 | 0.00 | 0.00 | 0.00 | 73 | 1030.5 |
| 20260906082054 | 66 | 314 | 0.0 | 0.0 | 0.00 | 0.00 | 0.00 | 73 | 1030.5 |
| 20260906081553 | 66 | 319 | 0.0 | 0.0 | 0.00 | 0.00 | 0.00 | 74 | 1030.5 |
| 20260906081051 | 66 | 319 | 0.0 | 0.0 | 0.00 | 0.00 | 0.00 | 74 | 1030.5 |
| 20260906080551 | 66 | 347 | 0.0 | 0.0 | 0.00 | 0.00 | 0.00 | 76 | 1030.5 |
| 20260906080052 | 66 | 347 | 0.0 | 0.0 | 0.00 | 0.00 | 0.00 | 74 | 1030.5 |
| 20260906075548 | 66 | 331 | 0.0 | 0.0 | 0.00 | 0.06 | 0.00 | 75 | 1030.6 |
| 20260906075050 | 65 | 331 | 0.0 | 0.0 | 0.00 | 0.06 | 0.00 | 76 | 1030.5 |
| 20260906074546 | 65 | 329 | 0.0 | 0.0 | 0.00 | 0.06 | 0.00 | 77 | 1030.6 |
| 20260906074045 | 65 | 329 | 0.0 | 0.0 | 0.00 | 0.06 | 0.00 | 77 | 1030.6 |
| 20260906073544 | 65 | 324 | 0.0 | 0.0 | 0.00 | 0.06 | 0.00 | 76 | 1030.5 |
| 20260906073042 | 65 | 314 | 0.0 | 0.0 | 0.00 | 0.06 | 0.00 | 78 | 1030.6 |
| 20260906072541 | 64 | 314 | 0.0 | 0.0 | 0.00 | 0.06 | 0.00 | 79 | 1030.7 |
| 20260906072039 | 64 | 314 | 0.0 | 0.0 | 0.00 | 0.06 | 0.00 | 79 | 1030.8 |
| 20260906071540 | 64 | 314 | 0.0 | 0.0 | 0.00 | 0.06 | 0.00 | 80 | 1030.7 |
| 20260906071037 | 63 | 314 | 0.0 | 0.0 | 0.00 | 0.06 | 0.00 | 81 | 1030.7 |
| 20260906070536 | 63 | 314 | 0.0 | 0.0 | 0.00 | 0.06 | 0.00 | 81 | 1030.8 |
| 20260906070034 | 62 | 314 | 0.0 | 0.0 | 0.00 | 0.06 | 0.00 | 82 | 1030.8 |
| 20260906065534 | 62 | 314 | 0.0 | 0.0 | 0.00 | 0.06 | 0.00 | 83 | 1030.7 |
| 20260906065032 | 61 | 314 | 0.0 | 1.0 | 0.00 | 0.06 | 0.00 | 86 | 1030.8 |
| 20260906064532 | 60 | 314 | 0.0 | 3.0 | 0.00 | 0.06 | 0.00 | 85 | 1030.9 |
| 20260906064035 | 59 | 314 | 2.0 | 3.0 | 0.00 | 0.06 | 0.00 | 84 | 1030.8 |
| 20260906063530 | 59 | 314 | 0.0 | 2.0 | 0.00 | 0.06 | 0.00 | 85 | 1030.8 |
| 20260906063031 | 59 | 314 | 1.0 | 3.0 | 0.00 | 0.06 | 0.00 | 87 | 1030.7 |
| 20260906062529 | 58 | 314 | 2.0 | 3.0 | 0.00 | 0.06 | 0.00 | 86 | 1030.7 |
| 20260906062030 | 58 | 314 | 0.0 | 3.0 | 0.00 | 0.06 | 0.00 | 88 | 1030.9 |
| 20260906061530 | 58 | 183 | 0.0 | 0.0 | 0.00 | 0.06 | 0.00 | 91 | 1030.9 |
| 20260906061027 | 58 | 183 | 0.0 | 0.0 | 0.00 | 0.06 | 0.00 | 91 | 1030.7 |
| 20260906060527 | 57 | 183 | 0.0 | 0.0 | 0.00 | 0.06 | 0.00 | 91 | 1030.6 |
| 20260906060027 | 57 | 183 | 0.0 | 0.0 | 0.00 | 0.06 | 0.00 | 91 | 1030.6 |
| 20260906055524 | 57 | 183 | 0.0 | 0.0 | 0.00 | 0.06 | 0.00 | 91 | 1030.5 |
| 20260906055023 | 57 | 183 | 0.0 | 0.0 | 0.00 | 0.06 | 0.00 | 91 | 1030.5 |
| 20260906054536 | 57 | 183 | 0.0 | 0.0 | 0.00 | 0.06 | 0.00 | 91 | 1030.6 |
| 20260906054020 | 57 | 183 | 0.0 | 0.0 | 0.00 | 0.06 | 0.00 | 91 | 1030.5 |
| 20260906053518 | 57 | 183 | 0.0 | 0.0 | 0.00 | 0.06 | 0.00 | 91 | 1030.4 |
| 20260906053019 | 57 | 183 | 0.0 | 0.0 | 0.00 | 0.06 | 0.00 | 91 | 1030.4 |
| 20260906052517 | 57 | 183 | 0.0 | 0.0 | 0.00 | 0.06 | 0.00 | 91 | 1030.3 |
| 20260906052017 | 57 | 183 | 0.0 | 0.0 | 0.00 | 0.06 | 0.00 | 90 | 1030.3 |
| 20260906051515 | 57 | 183 | 0.0 | 0.0 | 0.00 | 0.06 | 0.00 | 90 | 1030.3 |
| 20260906051015 | 57 | 183 | 0.0 | 0.0 | 0.00 | 0.06 | 0.00 | 90 | 1030.2 |
| 20260906050513 | 57 | 183 | 0.0 | 0.0 | 0.00 | 0.06 | 0.00 | 89 | 1030.2 |
| 20260906050013 | 57 | 183 | 0.0 | 0.0 | 0.00 | 0.06 | 0.00 | 89 | 1030.2 |
| 20260906045512 | 57 | 183 | 0.0 | 0.0 | 0.00 | 0.06 | 0.00 | 84 | 1030.2 |
| 20260906045011 | 57 | 183 | 0.0 | 0.0 | 0.00 | 0.06 | 0.00 | 84 | 1030.1 |
| 20260906044512 | 57 | 183 | 0.0 | 0.0 | 0.00 | 0.06 | 0.00 | 84 | 1030.1 |
| 20260906044009 | 58 | 183 | 0.0 | 0.0 | 0.00 | 0.06 | 0.00 | 85 | 1030.1 |
| 20260906043509 | 58 | 183 | 0.0 | 0.0 | 0.00 | 0.06 | 0.00 | 85 | 1030.0 |
| 20260906043014 | 58 | 183 | 0.0 | 0.0 | 0.00 | 0.06 | 0.00 | 85 | 1029.9 |
| 20260906042507 | 58 | 183 | 0.0 | 0.0 | 0.00 | 0.06 | 0.00 | 84 | 1029.9 |
| 20260906042008 | 58 | 183 | 0.0 | 0.0 | 0.00 | 0.06 | 0.00 | 84 | 1029.9 |
| 20260906041507 | 58 | 183 | 0.0 | 0.0 | 0.00 | 0.06 | 0.00 | 84 | 1029.9 |
| 20260906041007 | 58 | 183 | 0.0 | 0.0 | 0.00 | 0.06 | 0.00 | 85 | 1029.9 |
| 20260906040507 | 58 | 183 | 0.0 | 0.0 | 0.00 | 0.06 | 0.00 | 86 | 1029.8 |
| 20260906040009 | 58 | 183 | 0.0 | 0.0 | 0.00 | 0.06 | 0.00 | 84 | 1029.8 |
| 20260906035505 | 58 | 183 | 0.0 | 0.0 | 0.00 | 0.06 | 0.00 | 84 | 1029.7 |
| 20260906035004 | 59 | 183 | 0.0 | 0.0 | 0.00 | 0.06 | 0.00 | 87 | 1029.8 |
| 20260906034507 | 59 | 183 | 0.0 | 0.0 | 0.00 | 0.06 | 0.00 | 88 | 1029.8 |
| 20260906034004 | 59 | 183 | 0.0 | 0.0 | 0.00 | 0.06 | 0.00 | 89 | 1029.7 |
| 20260906033503 | 59 | 183 | 0.0 | 0.0 | 0.00 | 0.06 | 0.00 | 89 | 1029.8 |
| 20260906033007 | 59 | 183 | 0.0 | 0.0 | 0.00 | 0.06 | 0.00 | 87 | 1029.7 |
| 20260906032502 | 59 | 183 | 0.0 | 0.0 | 0.00 | 0.06 | 0.00 | 87 | 1029.7 |
| 20260906032101 | 59 | 183 | 0.0 | 0.0 | 0.00 | 0.06 | 0.00 | 87 | 1029.7 |
| 20260906031600 | 59 | 183 | 0.0 | 0.0 | 0.00 | 0.06 | 0.00 | 86 | 1029.6 |
| 20260906031100 | 59 | 183 | 0.0 | 0.0 | 0.00 | 0.06 | 0.00 | 87 | 1029.6 |
| 20260906030600 | 59 | 183 | 0.0 | 0.0 | 0.00 | 0.06 | 0.00 | 85 | 1029.5 |
| 20260906025559 | 60 | 183 | 0.0 | 0.0 | 0.00 | 0.06 | 0.00 | 85 | 1029.5 |
| 20260906025058 | 60 | 183 | 0.0 | 0.0 | 0.00 | 0.06 | 0.00 | 86 | 1029.4 |
| 20260906024612 | 60 | 183 | 0.0 | 0.0 | 0.00 | 0.06 | 0.00 | 86 | 1029.5 |
| 20260906024058 | 60 | 183 | 0.0 | 0.0 | 0.00 | 0.06 | 0.00 | 86 | 1029.5 |
| 20260906023559 | 60 | 183 | 0.0 | 0.0 | 0.00 | 0.06 | 0.00 | 86 | 1029.5 |
| 20260906023103 | 60 | 183 | 0.0 | 0.0 | 0.00 | 0.06 | 0.00 | 87 | 1029.5 |
| 20260906022600 | 60 | 183 | 0.0 | 0.0 | 0.00 | 0.06 | 0.00 | 87 | 1029.6 |
| 20260906022059 | 60 | 183 | 0.0 | 1.0 | 0.00 | 0.06 | 0.00 | 87 | 1029.6 |
| 20260906021557 | 60 | 183 | 0.0 | 1.0 | 0.00 | 0.06 | 0.00 | 87 | 1029.6 |
| 20260906021056 | 60 | 183 | 0.0 | 0.0 | 0.00 | 0.06 | 0.00 | 87 | 1029.6 |
| 20260906020556 | 60 | 183 | 0.0 | 0.0 | 0.00 | 0.06 | 0.00 | 87 | 1029.5 |
| 20260906020056 | 60 | 183 | 0.0 | 0.0 | 0.00 | 0.06 | 0.00 | 87 | 1029.5 |
| 20260906015555 | 60 | 183 | 0.0 | 0.0 | 0.00 | 0.06 | 0.00 | 87 | 1029.5 |
| 20260906015055 | 60 | 183 | 0.0 | 0.0 | 0.00 | 0.06 | 0.00 | 87 | 1029.5 |
| 20260906014555 | 60 | 183 | 0.0 | 0.0 | 0.00 | 0.06 | 0.00 | 87 | 1029.5 |
| 20260906014054 | 60 | 183 | 0.0 | 3.0 | 0.00 | 0.06 | 0.00 | 87 | 1029.5 |
| 20260906013555 | 60 | 183 | 1.0 | 3.0 | 0.00 | 0.06 | 0.00 | 87 | 1029.4 |
| 20260906013058 | 60 | 304 | 0.0 | 0.0 | 0.00 | 0.06 | 0.00 | 87 | 1029.5 |
| 20260906012554 | 60 | 304 | 0.0 | 0.0 | 0.00 | 0.06 | 0.00 | 88 | 1029.5 |
| 20260906012054 | 60 | 304 | 0.0 | 0.0 | 0.00 | 0.06 | 0.00 | 87 | 1029.5 |
| 20260906011553 | 60 | 304 | 0.0 | 0.0 | 0.00 | 0.06 | 0.00 | 87 | 1029.4 |
| 20260906011055 | 60 | 304 | 0.0 | 0.0 | 0.00 | 0.06 | 0.00 | 87 | 1029.5 |
| 20260906010552 | 60 | 304 | 0.0 | 0.0 | 0.00 | 0.06 | 0.00 | 87 | 1029.5 |
| 20260906010053 | 60 | 304 | 0.0 | 0.0 | 0.00 | 0.06 | 0.00 | 87 | 1029.4 |
| 20260906005552 | 60 | 304 | 0.0 | 0.0 | 0.00 | 0.06 | 0.00 | 86 | 1029.5 |
| 20260906005052 | 60 | 304 | 0.0 | 0.0 | 0.00 | 0.06 | 0.00 | 86 | 1029.4 |
| 20260906004552 | 60 | 304 | 0.0 | 0.0 | 0.00 | 0.06 | 0.00 | 87 | 1029.4 |
| 20260906004051 | 61 | 304 | 0.0 | 0.0 | 0.00 | 0.06 | 0.00 | 87 | 1029.4 |
| 20260906003552 | 61 | 304 | 0.0 | 0.0 | 0.00 | 0.06 | 0.00 | 86 | 1029.5 |
| 20260906003051 | 61 | 304 | 0.0 | 0.0 | 0.00 | 0.06 | 0.00 | 85 | 1029.4 |
| 20260906002554 | 61 | 304 | 0.0 | 0.0 | 0.00 | 0.06 | 0.00 | 85 | 1029.4 |
| 20260906002050 | 61 | 304 | 0.0 | 0.0 | 0.00 | 0.06 | 0.00 | 86 | 1029.4 |
| 20260906001549 | 61 | 304 | 0.0 | 0.0 | 0.00 | 0.06 | 0.00 | 86 | 1029.4 |
| 20260906001049 | 61 | 304 | 0.0 | 0.0 | 0.00 | 0.06 | 0.00 | 86 | 1029.4 |
| 20260906000549 | 61 | 304 | 0.0 | 0.0 | 0.00 | 0.06 | 0.00 | 86 | 1029.4 |
| 20260906000049 | 61 | 304 | 0.0 | 0.0 | 0.00 | 0.06 | 0.00 | 86 | 1029.4 |
| 20260905235549 | 60 | 304 | 0.0 | 0.0 | 0.00 | 0.06 | 0.00 | 86 | 1029.4 |
| 20260905235049 | 61 | 304 | 0.0 | 0.0 | 0.00 | 0.06 | 0.00 | 86 | 1029.4 |